Home   Weather   Luhansk   Past weeks

Flag for Ukraine Past Weather in Luhansk, Ukraine — Yesterday and Last 2 Weeks

Now
30 °F

Clear.


Feels Like: 24 °F
Forecast: 34 / 46 °F
Wind: 6 mph from Southwest

Location: Rostov-Na-Donu

Current Time: Feb 27, 2017 at 7:42:27 am

Latest Report: Feb 27, 2017 at 7:00 am


Visibility: 5 mi

Pressure: 30.18 "Hg

Humidity: 80%

Dew Point: 25 °F

Location of LuhanskLocation

Past Weather in Luhansk — Graph

°F

Luhansk Temperature Yesterday

Maximum temperature yesterday: 37 °F (at 12:30 pm)
Minimum temperature yesterday: 28 °F (at 3:30 am)
Average temperature yesterday: 32 °F

High & Low Weather Summary for the Past Weeks

 TemperatureHumidityPressure
High54 °F (Feb 24, 4:30 pm)100% (Feb 14, 3:30 am)30.60 "Hg (Feb 14, 3:30 am)
Low7 °F (Feb 17, 7:30 am)54% (Feb 17, 2:00 pm)29.56 "Hg (Feb 23, 4:00 pm)
Average31 °F82%30.10 "Hg
* Reported Feb 12 6:00 am — Feb 27 6:30 am, Luhansk, Weather by CustomWeather, © 2017

Note: Actual official high and low records may vary slightly from our data, if they occured in-between our weather recording intervals... More about our weather records

Advertising

Luhansk Weather History for the Previous 24 Hours

Scroll right to see more
 ConditionsComfort  
Time TempWeatherWind HumidityBarometerVisibility
6:30 am
Mon, Feb 27
30 °FClear.1 mph80%30.18 "Hg5 mi
6:00 am30 °FClear.3 mph80%30.18 "Hg5 mi
5:30 am30 °FClear.3 mph80%30.18 "Hg5 mi
5:00 am30 °FClear.6 mph80%30.18 "Hg5 mi
4:30 am30 °FClear.6 mph80%30.18 "Hg5 mi
4:00 am30 °FClear.6 mph80%30.18 "Hg5 mi
3:30 am32 °FClear.6 mph75%30.18 "Hg5 mi
3:00 am32 °FClear.6 mph75%30.18 "Hg5 mi
2:30 am30 °FClear.3 mph80%30.18 "Hg5 mi
2:00 am30 °FClear.8 mph86%30.18 "Hg5 mi
1:30 am30 °FClear.8 mph86%30.21 "Hg5 mi
1:00 am30 °FClear.8 mph80%30.21 "Hg5 mi
12:30 am30 °FClear.8 mph80%30.21 "Hg5 mi
12:00 am30 °FClear.6 mph80%30.21 "Hg5 mi
11:30 pm
Sun, Feb 26
32 °FClear.6 mph75%30.24 "Hg5 mi
11:00 pm32 °FClear.6 mph75%30.24 "Hg5 mi
10:30 pm32 °FClear.8 mph75%30.24 "Hg5 mi
10:00 pm32 °FClear.8 mph75%30.24 "Hg5 mi
9:30 pm32 °FClear.8 mph75%30.24 "Hg5 mi
9:00 pm32 °FClear.8 mph80%30.24 "Hg5 mi
8:30 pm32 °FClear.8 mph80%30.24 "Hg5 mi
8:00 pm32 °FClear.8 mph80%30.24 "Hg5 mi
7:30 pm34 °FClear.10 mph75%30.24 "Hg5 mi
7:00 pm34 °FClear.13 mph75%30.24 "Hg5 mi
6:30 pm34 °FClear.10 mph75%30.24 "Hg5 mi
6:00 pm34 °FPassing clouds.8 mph75%30.24 "HgN/A
5:30 pm34 °FPassing clouds.15 mph75%30.24 "HgN/A
5:00 pm36 °FPassing clouds.10 mph75%30.24 "HgN/A
4:30 pm36 °FScattered clouds.10 mph75%30.24 "HgN/A
4:00 pm36 °FScattered clouds.13 mph75%30.24 "HgN/A
3:30 pm36 °FScattered clouds.13 mph75%30.24 "HgN/A
3:00 pm36 °FScattered clouds.15 mph75%30.24 "HgN/A
2:30 pm36 °FScattered clouds.15 mph75%30.24 "HgN/A
2:00 pm37 °FScattered clouds.13 mph70%30.24 "HgN/A
1:30 pm37 °FScattered clouds.13 mph65%30.24 "HgN/A
1:00 pm37 °FScattered clouds.13 mph65%30.21 "HgN/A
12:30 pm37 °FScattered clouds.10 mph65%30.21 "HgN/A
12:00 pm36 °FScattered clouds.13 mph70%30.21 "HgN/A
11:30 am36 °FScattered clouds.10 mph70%30.21 "HgN/A
11:00 am34 °FScattered clouds.10 mph81%30.24 "HgN/A
10:30 am34 °FScattered clouds.10 mph75%30.24 "HgN/A
10:00 am32 °FScattered clouds.10 mph80%30.21 "HgN/A
9:30 am32 °FScattered clouds.10 mph80%30.21 "HgN/A
9:00 am30 °FPassing clouds.10 mph86%30.21 "HgN/A
8:30 am30 °FPassing clouds.10 mph86%30.18 "HgN/A
8:00 am30 °FPassing clouds.10 mph86%30.18 "HgN/A
7:30 am28 °FPassing clouds.10 mph93%30.18 "HgN/A
7:00 am28 °FClear.13 mph86%30.15 "Hg5 mi
Weather by CustomWeather, © 2017

See weather overviewHow to use our weather pages